Weather History for K1H2 - November, 2012

Change the Weather History Date:

Monday, November 5, 2012

  Actual Average (KMTO) Record (KMTO)
Temperature  
Mean Temperature 38 °F 48 °F  
Max Temperature 43 °F 57 °F 78 °F (1978)
Min Temperature 34 °F 39 °F 18 °F (1991)
Degree Days  
Heating Degree Days 26 17  
Month to date heating degree days 82  
Since 1 July heating degree days 486  
Cooling Degree Days 0 0  
Month to date cooling degree days 0  
Year to date cooling degree days 1057  
Moisture  
Dew Point 33 °F    
Average Humidity 79    
Maximum Humidity 93    
Minimum Humidity 64    
Precipitation  
Precipitation 0.00 in 0.11 in 1.00 in (1990)
Month to date precipitation 0.59  
Year to date precipitation 32.39  
Sea Level Pressure  
Sea Level Pressure 30.13 in    
Wind  
Wind Speed 1 mph (ESE)    
Max Wind Speed 7 mph    
Max Gust Speed -    
Visibility 9 miles    
Events      
T = Trace of Precipitation, MM = Missing Value Source: NWS Daily Summary

Daily Weather History Graph

Daily Weather History Graph

Search for Another Location

Airport or City:

Trip Planner

Search our weather history database for the weather conditions in past years. The results will help you decide how hot, cold, wet, or windy it might be!

Date:

Astronomy

Nov. 05, 2012 Rise Set
Actual Time 6:26 AM CST 4:48 PM CST
Civil Twilight 5:58 AM CST 5:16 PM CST
Nautical Twilight 5:26 AM CST 5:48 PM CST
Astronomical Twilight 4:55 AM CST 6:19 PM CST
Moon 10:25 PM CST 11:45 AM CST
Length of Visible Light 11h 17m
Length of Day
10h 21m
Waning Gibbous, 62% of the Moon is Illuminated
Nov 5
Waning Gibbous
Nov 6
Last Quarter
Nov 13
New
Nov 20
First Quarter
Nov 28
Full

Hourly Weather History & Observations

Time (CST) Temp. Windchill Dew Point Humidity Pressure Visibility Wind Dir Wind Speed Gust Speed Precip Events Conditions
12:15 AM 34.7 °F - 32.5 °F 92% 30.18 in 7.0 mi Calm Calm - N/A   Overcast
12:35 AM 34.7 °F - 32.9 °F 93% 30.18 in 7.0 mi Calm Calm - N/A   Overcast
12:55 AM 34.9 °F - 32.9 °F 92% 30.18 in 7.0 mi Calm Calm - N/A   Mostly Cloudy
1:15 AM 35.2 °F - 32.7 °F 91% 30.18 in 7.0 mi Calm Calm - N/A   Mostly Cloudy
1:35 AM 36.9 °F - 32.0 °F 83% 30.17 in 10.0 mi Calm Calm - N/A   Mostly Cloudy
1:55 AM 35.6 °F - 32.2 °F 87% 30.18 in 10.0 mi Calm Calm - N/A   Overcast
2:15 AM 35.8 °F - 32.5 °F 88% 30.17 in 7.0 mi Calm Calm - N/A   Scattered Clouds
2:35 AM 35.2 °F - 32.4 °F 89% 30.17 in 10.0 mi Calm Calm - N/A   Clear
2:55 AM 37.2 °F - 31.6 °F 80% 30.16 in 10.0 mi Calm Calm - N/A   Clear
3:15 AM 37.4 °F - 31.6 °F 80% 30.16 in 10.0 mi Calm Calm - N/A   Scattered Clouds
3:35 AM 37.4 °F - 31.6 °F 80% 30.15 in 10.0 mi Calm Calm - N/A   Mostly Cloudy
3:55 AM 37.6 °F - 31.5 °F 79% 30.15 in 10.0 mi Calm Calm - N/A   Scattered Clouds
4:15 AM 37.4 °F 34.9 °F 31.3 °F 79% 30.15 in 10.0 mi ENE 3.5 mph - N/A   Mostly Cloudy
4:35 AM 37.4 °F 34.9 °F 31.5 °F 79% 30.15 in 10.0 mi ENE 3.5 mph - N/A   Mostly Cloudy
4:55 AM 37.2 °F - 31.6 °F 80% 30.15 in 10.0 mi Calm Calm - N/A   Mostly Cloudy
5:15 AM 37.4 °F - 32.0 °F 81% 30.15 in 10.0 mi Calm Calm - N/A   Scattered Clouds
5:35 AM 36.5 °F - 31.6 °F 83% 30.14 in 10.0 mi Calm Calm - N/A   Clear
5:55 AM 36.1 °F - 31.6 °F 84% 30.14 in 7.0 mi Calm Calm - N/A   Clear
6:15 AM 36.1 °F 33.5 °F 31.6 °F 84% 30.14 in 7.0 mi East 3.5 mph - N/A   Mostly Cloudy
6:35 AM 36.5 °F 32.7 °F 31.8 °F 83% 30.14 in 7.0 mi East 4.6 mph - N/A   Overcast
6:55 AM 36.0 °F 32.1 °F 32.0 °F 86% 30.15 in 7.0 mi East 4.6 mph - N/A   Mostly Cloudy
7:15 AM 36.0 °F 32.1 °F 31.8 °F 85% 30.15 in 5.0 mi East 4.6 mph - N/A   Scattered Clouds
7:35 AM 36.1 °F 33.5 °F 32.0 °F 85% 30.15 in 7.0 mi East 3.5 mph - N/A   Clear
7:55 AM 37.0 °F 32.4 °F 32.0 °F 82% 30.15 in 7.0 mi East 5.8 mph - N/A   Clear
8:15 AM 38.1 °F 32.9 °F 32.4 °F 80% 30.15 in 7.0 mi East 6.9 mph - N/A   Mostly Cloudy
8:35 AM 38.7 °F 34.3 °F 33.1 °F 80% 30.15 in 7.0 mi ESE 5.8 mph - N/A   Overcast
8:55 AM 39.2 °F 35.9 °F 33.1 °F 79% 30.15 in 10.0 mi East 4.6 mph - N/A   Overcast
9:15 AM 40.1 °F 36.1 °F 32.9 °F 75% 30.15 in 10.0 mi ESE 5.8 mph - N/A   Overcast
9:35 AM 40.6 °F 36.7 °F 32.9 °F 74% 30.15 in 10.0 mi ESE 5.8 mph - N/A   Overcast
9:55 AM 41.0 °F 36.4 °F 32.7 °F 72% 30.15 in 10.0 mi SE 6.9 mph - N/A   Overcast
10:15 AM 41.4 °F 37.6 °F 33.3 °F 73% 30.16 in 10.0 mi SE 5.8 mph - N/A   Overcast
10:35 AM 42.1 °F 39.2 °F 32.5 °F 69% 30.15 in 10.0 mi SSE 4.6 mph - N/A   Overcast
10:55 AM 42.4 °F 39.6 °F 32.5 °F 68% 30.15 in 10.0 mi East 4.6 mph - N/A   Overcast
11:15 AM 42.8 °F 40.1 °F 32.5 °F 67% 30.15 in 10.0 mi ESE 4.6 mph - N/A   Overcast
11:35 AM 43.0 °F 40.3 °F 32.4 °F 66% 30.14 in 10.0 mi SE 4.6 mph - N/A   Overcast
11:55 AM 42.8 °F 40.1 °F 31.3 °F 64% 30.13 in 10.0 mi SE 4.6 mph - N/A   Overcast
12:15 PM 43.7 °F 41.1 °F 32.5 °F 65% 30.12 in 10.0 mi ESE 4.6 mph - N/A   Overcast
12:35 PM 43.3 °F 40.7 °F 32.7 °F 66% 30.12 in 10.0 mi ESE 4.6 mph - N/A   Overcast
12:55 PM 43.2 °F - 32.5 °F 66% 30.12 in 10.0 mi Calm Calm - N/A   Overcast
1:15 PM 43.2 °F - 32.5 °F 66% 30.12 in 10.0 mi Calm Calm - N/A   Overcast
1:35 PM 42.8 °F - 32.2 °F 66% 30.11 in 10.0 mi Calm Calm - N/A   Overcast
1:55 PM 43.0 °F - 32.2 °F 66% 30.10 in 10.0 mi Calm Calm - N/A   Overcast
2:15 PM 43.2 °F - 32.2 °F 65% 30.10 in 10.0 mi Calm Calm - N/A   Overcast
2:35 PM 42.8 °F - 32.0 °F 66% 30.10 in - Calm Calm - N/A   Unknown
2:55 PM 42.8 °F - 33.1 °F 69% 30.11 in 10.0 mi Calm Calm - N/A   Overcast
3:15 PM 42.3 °F - 33.4 °F 71% 30.11 in 10.0 mi Calm Calm - N/A   Overcast
3:35 PM 42.8 °F - 33.8 °F 70% 30.11 in 10.0 mi Calm Calm - N/A   Overcast
3:55 PM 42.1 °F - 34.9 °F 76% 30.11 in 10.0 mi Calm Calm - N/A   Overcast
4:15 PM 41.9 °F - 34.9 °F 76% 30.11 in 10.0 mi Calm Calm - N/A   Overcast
4:35 PM 41.9 °F - 35.2 °F 77% 30.11 in 10.0 mi Calm Calm - N/A   Overcast
4:55 PM 41.5 °F - 36.0 °F 81% 30.12 in 10.0 mi Calm Calm - N/A   Overcast
5:15 PM 41.0 °F 39.0 °F 36.1 °F 83% 30.12 in 10.0 mi West 3.5 mph - N/A   Overcast
5:35 PM 41.0 °F - 36.1 °F 83% 30.12 in 10.0 mi Calm Calm - N/A   Overcast
5:55 PM 40.5 °F 38.4 °F 36.0 °F 84% 30.12 in 10.0 mi NW 3.5 mph - N/A   Overcast
6:15 PM 40.5 °F 38.4 °F 36.3 °F 85% 30.12 in 10.0 mi West 3.5 mph - N/A   Overcast
6:35 PM 40.5 °F 38.4 °F 36.5 °F 86% 30.12 in 7.0 mi WNW 3.5 mph - N/A   Overcast
6:55 PM 40.6 °F - 36.5 °F 85% 30.12 in 7.0 mi Calm Calm - N/A   Overcast
7:15 PM 41.0 °F - 36.5 °F 84% 30.12 in 7.0 mi Calm Calm - N/A   Overcast
7:35 PM 40.8 °F - 36.5 °F 85% 30.12 in 10.0 mi Calm Calm - N/A   Overcast
7:55 PM 41.0 °F - 36.3 °F 83% 30.12 in 10.0 mi Calm Calm - N/A   Overcast
8:15 PM 41.2 °F - 35.6 °F 81% 30.12 in 10.0 mi Calm Calm - N/A   Overcast
8:35 PM 41.0 °F - 36.1 °F 83% 30.12 in 10.0 mi Calm Calm - N/A   Overcast
8:55 PM 40.8 °F - 36.3 °F 84% 30.12 in 10.0 mi Calm Calm - N/A   Overcast
9:15 PM 40.8 °F - 35.6 °F 82% 30.11 in 10.0 mi Calm Calm - N/A   Overcast
9:35 PM 40.5 °F - 35.2 °F 82% 30.11 in 10.0 mi Calm Calm - N/A   Overcast
9:55 PM 40.3 °F 38.2 °F 35.2 °F 82% 30.11 in 10.0 mi NW 3.5 mph - N/A   Overcast
10:15 PM 40.1 °F - 35.1 °F 82% 30.10 in 10.0 mi Calm Calm - N/A   Overcast
10:35 PM 39.9 °F - 34.9 °F 82% 30.10 in 10.0 mi Calm Calm - N/A   Overcast
10:55 PM 39.9 °F - 34.3 °F 80% 30.09 in 10.0 mi Calm Calm - N/A   Overcast
11:15 PM 39.7 °F - 34.7 °F 82% 30.09 in 10.0 mi Calm Calm - N/A   Overcast
11:35 PM 39.2 °F - 34.7 °F 84% 30.09 in 10.0 mi Calm Calm - N/A   Overcast
11:55 PM 39.4 °F - 34.9 °F 84% 30.08 in 10.0 mi Calm Calm - N/A   Overcast